Theta_e
346 355 359 356 356 356 360 361 362 362 361 361 359 358 358 361 361 360 360 360 361 361 358 357 355 355 357 357 356 356 356 356 354 352 352 353 353 355 356 354 358 354 356
349 355 359 358 356 357 359 362 361 361 361 360 359 359 360 362 361 360 360 360 362 359 359 359 358 355 355 356 356 356 355 355 356 353 351 352 351 351 353 354 357 355 356
349 355 354 358 357 357 359 361 361 360 360 360 361 362 362 361 359 359 361 361 360 359 359 359 359 358 356 355 355 355 355 355 355 353 353 344 346 350 351 353 353 355 355
351 354 353 359 359 358 358 359 361 361 362 362 362 361 360 360 359 358 359 359 357 356 356 356 357 357 357 357 356 355 354 353 353 352 346 345 345 350 349 350 351 352 353
351 352 355 360 359 359 359 360 361 361 361 360 360 359 358 358 359 360 359 359 355 354 353 353 353 353 354 356 357 357 357 353 351 349 346 347 346 349 349 349 348 348 351
348 349 357 359 358 360 360 359 360 359 360 360 359 357 357 356 357 359 358 358 354 352 351 351 351 350 350 350 350 354 357 357 357 348 346 348 348 349 348 347 348 348 348
347 349 354 360 359 359 359 359 359 359 359 360 359 357 357 356 356 356 355 353 353 352 352 351 351 351 351 351 351 351 351 353 357 352 351 349 351 353 349 349 348 347 346
346 349 352 358 359 359 360 359 360 359 359 359 359 358 356 355 354 353 352 351 352 352 353 353 353 353 353 354 354 354 354 356 355 354 354 351 352 354 351 350 349 348 347
346 347 352 353 358 359 359 359 359 359 359 359 359 358 356 353 352 351 351 351 352 352 352 353 353 354 354 353 354 355 354 352 354 355 353 352 355 355 354 351 350 348 347
345 345 348 350 352 352 356 360 359 359 359 359 357 355 355 352 351 349 352 353 352 352 351 351 351 351 351 352 353 354 355 352 355 355 354 354 357 356 354 353 351 351 349
342 344 345 346 347 349 348 355 359 357 357 357 355 355 352 346 345 348 353 353 353 352 351 351 351 352 349 351 355 354 356 354 358 355 354 356 357 357 357 354 352 352 351
339 342 343 343 345 346 346 351 353 353 352 352 351 353 348 348 347 349 354 352 354 352 351 351 352 349 350 353 354 355 354 355 353 356 356 358 357 357 358 357 354 353 353
340 341 341 343 346 345 345 347 349 349 350 351 353 353 351 346 347 348 350 350 352 351 350 351 348 350 348 353 352 353 354 355 354 355 357 357 358 357 358 357 355 354 354
340 341 341 344 347 348 347 347 346 346 349 349 352 355 351 345 346 347 347 348 351 349 351 351 350 352 352 354 352 353 355 355 356 356 357 356 357 357 357 357 357 356 356
339 340 341 344 348 349 349 347 347 347 348 349 350 353 349 344 346 348 348 349 350 350 350 349 349 349 350 351 352 353 352 353 353 354 357 356 358 356 354 353 353 355 356
341 341 342 342 350 350 350 349 348 349 349 349 349 350 351 346 349 349 350 349 350 350 349 348 347 347 347 349 350 352 352 353 355 354 353 355 354 356 356 355 355 354 353
342 343 343 344 347 350 352 351 349 349 348 348 349 351 352 350 352 354 350 350 350 350 349 348 347 346 346 349 351 350 351 353 353 354 354 351 353 352 351 350 351 352 354
344 343 344 342 344 349 350 350 349 348 348 348 349 349 352 350 352 356 350 350 350 350 349 347 345 343 343 346 347 349 350 352 349 348 349 347 348 346 347 346 346 346 346
346 344 343 344 341 345 349 349 350 351 349 348 349 348 351 349 350 354 350 350 351 347 347 346 345 344 341 343 345 343 344 345 347 345 341 341 341 341 340 341 340 339 340
347 347 346 344 346 346 346 347 346 347 348 348 347 347 349 348 348 352 349 350 349 346 346 346 347 344 342 342 341 337 336 337 341 340 337 337 337 338 338 339 336 334 334
347 348 348 346 348 345 343 341 341 341 343 345 346 349 348 347 347 352 348 349 348 345 347 348 345 341 337 342 337 331 328 332 334 337 338 338 337 336 336 335 333 332 329
344 348 349 348 349 348 344 345 342 342 342 343 344 347 347 347 347 349 350 346 346 343 346 345 344 337 339 340 334 332 324 321 325 329 334 332 331 329 327 328 328 328 327
338 345 348 349 350 350 350 347 344 343 342 340 340 340 343 345 347 347 348 345 344 345 341 342 340 340 335 336 340 334 328 325 322 325 329 328 327 324 323 323 323 323 323
337 340 345 348 347 347 348 345 344 340 337 335 336 337 338 341 342 342 344 344 343 341 345 340 338 338 339 333 333 336 334 334 323 316 322 325 325 322 322 320 321 321 321
331 337 339 342 344 343 345 345 337 334 335 338 336 340 340 341 340 340 341 341 340 341 343 342 339 336 334 335 332 331 330 329 331 323 316 318 321 322 320 318 318 319 320
318 320 323 322 322 327 338 339 338 330 331 334 336 334 334 336 334 335 334 335 337 336 336 337 335 336 334 333 336 332 328 325 322 321 318 318 318 318 316 316 316 317 319
Wind_Speed
13 18 15 14 14 14 14 16 16 17 17 16 16 15 14 14 12 13 13 12 12 13 14 13 14 14 14 14 14 14 13 13 14 14 14 13 12 13 11 8 9 16 14
19 20 17 15 15 14 14 16 15 16 16 16 16 15 14 13 13 12 12 11 11 13 12 12 13 13 13 13 13 13 13 13 12 13 15 14 13 12 10 11 12 15 15
20 19 20 17 16 15 14 15 16 15 15 15 14 14 14 13 13 12 11 10 11 12 11 11 11 11 12 12 12 12 12 12 10 10 14 12 14 12 12 12 12 13 14
20 19 19 19 17 17 16 15 15 16 15 14 14 14 14 13 12 11 10 10 11 11 10 10 9 9 9 9 10 11 11 11 9 10 8 12 13 12 12 12 11 11 11
20 20 19 19 17 17 17 17 14 15 15 14 14 13 13 13 12 11 10 9 10 10 9 8 7 6 7 7 7 7 8 8 8 11 9 11 12 12 12 11 12 10 7
21 20 22 19 18 16 17 17 15 14 14 14 13 13 12 12 12 10 10 9 9 8 8 6 6 5 5 5 5 6 6 6 12 10 10 7 12 12 9 10 11 11 11
20 19 22 19 20 17 17 17 16 15 12 12 13 12 12 11 11 10 10 9 8 7 6 5 4 4 3 3 4 5 6 8 13 10 9 6 13 10 10 10 10 10 10
19 19 20 19 19 18 16 16 15 14 14 12 11 11 11 10 10 10 9 7 6 5 4 3 3 3 3 3 3 4 5 8 9 7 9 9 13 10 10 10 9 8 8
17 18 19 19 18 18 16 15 14 13 12 12 10 10 9 9 9 8 8 5 5 3 2 2 2 4 3 3 3 3 3 8 8 6 7 9 12 11 11 10 9 8 7
17 17 19 18 19 18 17 15 14 13 11 11 11 10 9 9 8 7 8 6 5 4 4 2 1 3 3 3 3 4 4 10 6 8 5 11 14 12 10 11 9 8 8
16 17 17 18 19 18 18 16 14 14 12 11 12 10 10 10 10 11 12 8 5 5 4 2 2 3 5 6 6 5 7 5 1 3 5 15 13 11 11 10 10 9 8
19 18 16 17 18 18 14 17 16 14 12 12 12 12 10 7 7 2 9 7 5 5 5 3 4 7 11 8 7 9 8 3 4 4 9 14 10 9 8 10 9 9 9
19 16 18 16 15 17 13 12 9 9 9 9 12 10 9 7 7 7 8 8 9 8 8 9 9 9 4 3 4 4 4 1 4 3 12 11 8 7 8 9 9 9 9
17 16 16 17 15 15 10 10 11 10 10 9 10 11 7 6 7 7 6 7 6 8 6 7 5 4 4 2 4 4 2 2 2 3 10 5 7 5 5 7 9 10 10
16 17 17 17 16 14 14 11 11 10 9 10 10 11 9 9 8 7 6 7 7 6 8 6 6 6 6 5 4 2 2 2 3 2 7 8 8 6 5 3 2 8 11
15 17 17 17 16 16 14 14 11 11 11 10 9 10 11 8 7 8 7 8 7 7 7 7 7 6 5 4 4 3 3 3 2 3 7 8 10 12 13 13 10 7 4
14 14 17 18 17 17 15 13 11 10 11 11 10 11 12 11 9 9 8 8 8 7 8 5 6 5 4 4 3 5 4 3 4 8 5 6 10 15 16 17 18 17 16
13 15 16 15 18 18 16 14 11 11 11 11 11 10 14 13 11 10 9 9 8 7 6 7 7 7 5 4 4 2 5 5 6 5 7 6 7 8 13 18 17 16 16
14 15 16 18 19 19 16 13 12 12 11 10 10 11 13 14 14 10 9 9 9 8 8 8 8 7 5 5 6 4 4 4 5 6 8 7 7 8 7 16 17 16 15
13 16 17 16 16 17 14 13 11 11 10 10 10 11 14 12 14 12 10 9 10 9 9 9 8 7 6 6 8 5 5 4 4 6 6 6 6 7 7 7 9 11 13
14 16 19 18 16 13 13 13 12 12 12 12 11 14 15 13 15 13 11 11 11 10 10 10 9 9 7 7 8 8 5 4 3 6 6 6 6 6 6 5 5 7 8
10 16 17 18 18 16 12 10 11 11 11 11 11 12 14 15 15 14 13 12 13 11 12 11 10 8 8 10 9 9 7 5 3 3 5 5 6 6 6 6 6 5 5
11 12 14 15 15 15 15 9 9 9 8 7 8 8 10 13 14 15 15 12 13 11 11 13 12 12 9 10 10 7 6 6 11 6 6 6 7 6 6 7 6 6 5
5 8 7 10 13 12 11 11 13 8 8 10 11 11 11 14 14 14 14 14 14 12 12 13 12 12 11 11 9 8 4 4 8 8 7 7 6 7 6 6 6 5 4
15 6 6 5 8 7 12 13 8 12 10 8 10 11 12 11 13 14 14 14 13 10 11 13 14 14 12 11 11 10 9 7 8 8 12 11 8 7 7 6 7 6 5
14 14 12 8 8 9 5 10 13 12 9 10 8 10 9 8 7 11 12 11 11 9 10 11 14 16 13 12 11 10 10 10 8 9 11 14 12 9 7 6 6 6 5
Wind_Direction
157 139 160 158 154 152 151 135 133 132 132 133 135 135 131 127 127 123 118 116 113 109 106 106 105 103 102 101 99 98 98 98 100 98 97 91 83 80 76 59 137 95 91
148 147 159 155 159 155 152 140 135 134 134 135 138 137 137 129 127 124 119 117 112 109 110 107 104 106 109 109 109 108 105 105 111 112 114 98 91 95 91 74 62 94 92
148 152 163 154 161 158 154 143 139 136 137 137 139 136 128 128 128 121 119 116 113 113 112 110 110 111 111 113 112 109 107 107 122 146 171 103 101 104 100 93 87 85 92
149 154 161 156 160 157 153 148 144 140 140 140 138 137 134 129 124 120 113 113 114 111 109 109 109 109 111 115 116 115 114 117 149 199 137 111 105 108 107 108 107 102 101
154 159 149 158 159 159 156 150 147 144 142 143 143 141 135 128 123 117 114 112 111 110 109 109 106 109 112 122 128 130 127 134 202 214 106 117 108 110 113 118 124 119 88
160 159 140 160 159 163 156 151 151 149 148 148 148 141 135 131 123 118 117 113 114 113 111 111 115 118 127 136 139 142 148 195 244 93 89 97 97 115 113 91 95 100 104
159 159 157 160 159 167 161 156 156 153 153 150 147 144 140 135 128 123 120 119 122 124 125 137 141 153 163 162 160 162 170 225 258 113 116 103 106 129 124 120 117 116 114
160 155 155 163 159 167 166 164 160 160 157 154 147 145 142 139 133 127 126 128 125 127 141 166 177 207 213 199 188 194 199 231 228 93 115 110 124 137 132 126 122 118 116
163 162 157 169 165 167 170 168 165 166 161 153 148 142 144 142 137 131 127 125 119 131 167 215 221 247 246 226 210 200 206 246 277 120 137 122 144 150 146 139 136 134 131
170 171 165 171 172 175 171 169 170 170 165 153 149 148 151 147 143 139 149 123 116 131 146 172 211 261 257 234 198 191 202 244 198 132 164 100 148 157 151 155 154 153 153
179 175 172 175 174 182 173 170 174 175 173 164 160 160 169 185 175 167 86 114 122 132 138 175 206 249 213 183 179 182 229 216 208 142 134 130 152 163 164 165 166 168 170
181 179 177 182 177 183 172 169 185 180 190 189 184 174 207 173 174 194 123 143 146 156 158 178 171 208 220 152 142 180 222 155 175 183 88 130 157 167 173 176 179 179 184
182 180 180 184 178 185 179 172 185 184 190 190 191 186 206 176 175 196 164 169 165 195 183 180 179 210 139 165 135 77 51 113 140 160 94 130 158 177 188 187 193 195 196
186 187 188 180 181 193 181 188 186 193 190 191 194 191 182 202 186 190 200 179 190 183 138 197 171 106 159 211 92 79 89 308 147 136 97 133 154 194 232 209 206 211 211
188 188 195 185 187 190 195 186 188 201 194 195 192 189 193 207 191 194 193 199 195 172 184 181 151 172 161 165 159 133 88 85 130 108 93 81 89 91 100 95 205 220 219
199 191 197 194 188 200 201 189 191 191 188 208 199 193 206 206 191 203 191 210 200 200 187 182 163 172 184 167 136 142 165 138 137 149 120 100 71 82 85 79 66 74 125
201 204 199 197 189 206 200 207 200 196 204 199 206 198 203 209 190 217 207 202 201 205 194 195 169 164 185 199 148 166 164 150 118 55 113 99 110 86 84 80 70 67 75
211 205 203 200 193 199 202 212 205 198 208 203 205 197 202 199 207 210 208 206 193 197 193 187 188 186 186 194 149 112 49 55 88 102 93 91 93 96 81 81 77 72 76
209 202 205 203 208 196 205 214 220 211 214 211 208 207 200 212 202 214 213 201 188 195 195 193 191 197 173 187 133 115 137 136 140 107 94 92 102 98 95 82 77 69 66
206 205 203 205 214 204 198 209 216 217 214 223 217 216 205 215 212 205 209 192 204 199 197 202 194 187 192 188 121 113 87 106 150 126 121 119 112 117 106 117 104 79 74
203 206 201 200 195 203 207 206 212 212 213 219 220 217 219 217 208 205 208 190 208 203 208 196 189 182 178 161 141 129 97 100 130 153 153 159 133 120 117 111 112 123 104
258 205 206 207 193 198 205 211 216 217 221 225 220 223 225 220 214 208 214 196 198 197 199 195 194 188 190 175 192 171 162 151 147 225 155 144 136 128 116 93 101 97 98
294 228 212 210 209 206 210 197 207 225 225 230 237 243 233 233 221 215 210 200 191 204 195 192 193 198 196 191 227 200 178 212 152 174 168 154 157 145 117 120 107 102 100
358 325 247 229 213 197 183 193 198 201 225 224 226 225 224 219 224 220 215 209 199 202 197 194 194 198 219 197 200 206 288 283 185 170 172 149 156 144 136 133 119 99 109
356 5 1 291 207 212 202 208 213 196 205 230 238 244 227 214 221 223 219 216 206 218 200 203 190 198 198 209 199 190 199 189 217 179 167 165 174 147 153 171 150 129 113
23 25 22 48 39 5 260 226 225 225 206 215 214 216 219 222 216 232 228 231 231 228 205 211 200 192 200 209 199 200 192 202 187 191 166 180 168 164 156 156 176 148 142